STARLINK-32489, 61893

Orbit data source: Space-Track

STARLINK-32489, 61893 is a payload satellite owned by SpaceX/Seattle (US) in LEO that was launched on Sat, 09 Nov 2024 UTC via an FALCON 9 launch vehicle from the Air Force Western Test Range (AFWTR). Payload-class satellites include a variety of spacecraft equipped with specific instruments for various scientific and technological missions. These include communications satellites like Starlink; space stations such as the ISS; scientific satellites like the Hubble; Earth observation satellites from companies like Planet Labs, Umbra, and HawkEye 360; GPS; miniature CubeSats for education and research; and military/defense satellites.

Loading next visibility...
Identifier
61893, 2024-204V
Orbit
LEO
Country
Flag of USUS
Related business
Manufacturer
SpaceX/Seattle
Mission
Operational Commercial Communications
Bus & Motor
STARLINK V2M, Unknown motor
Mass
730 kg wet, ~700 kg dry
Launch date (UTC)
2024-11-09 (2 years ago)
Launch vehicle
FALCON 9
Launch site
Air Force Western Test Range (AFWTR)
Object type
Payload
Rocket body
Debris
Shape & HBR
Box + 2 Pan, 17.7 m
Radar Cross Section
33.884 m², Large (>1 m²)

Expand to show TLE details & history
Last TLE update: 1 day ago

TLE from 1 day ago
0 STARLINK-32489
1 61893U 24204V   26170.78139298  .00000368  00000-0  22033-4 0  9993
2 61893  53.1630  11.0809 0001313 104.0609 256.0540 15.34394040 90749
Epoch: 2026-06-19T18:45Z
TLE epoch observation values (Epoch: 2026-06-19T18:45:12.353Z)
Latitude
0.00001°
Longitude
-178.22601°
Altitude
463.839 km
Speed
7.636 km/s
True Right ascension
00h 44m 19s
True Declination
0° 00' 00"
Sunlit
Object was in daylight at epoch
Visualization orbit readout
Latitude
Unknown
Longitude
Unknown
Altitude
Unknown
Speed
Unknown
Apparent Right ascension
Unknown
Apparent Declination
Unknown
Sunlit
N/A
Visualization observer readout
Local Sidereal Time
07:13:06
Azimuth
Unknown
Elevation
Unknown
Doppler factor
Unknown
Orbital elements
Apogee altitude
463.876 km
Perigee altitude
462.079 km
Semi-major axis
6,841.114 km
Eccentricity
0.00013
Inclination
53.163°
RAAN
11.0809°
Arg. of periapsis
104.0609°
True anomaly
256.0394°
Mean anomaly
256.054°
Eccentric anomaly
256.0467°
Mean motion
3.83577 °/min
Orbital period
93.85 mins
BSTAR
0.000022033
Loading maneuver chart data...
Computing Atmospheric mass density...
Loading historical data...
Loading historical data...
Loading historical data...
Loading historical data...
Loading historical data...
Loading historical data...
Loading historical data...

Documentation

Showing up to 5 results
|